• Em Portugal
  • Lista de países
  • Para 7 dias
  • Temperatura da água
  • Mapas de satélite
  • Mapa do tempo
  • Widgets de tempo
  • user-avatar
    Iniciar Sessão

    Previsão horária em Bonarowka

    Hoje, 26 Setembro, Quarta-feira

    Tempo Temperatura Precipitação Vento Pressão Humidade
    00:00 +3°C° 0 mm 2 m/s 750 mmHg 78%
    01:00 +2°C° 0 mm 2 m/s 750 mmHg 83%
    02:00 +2°C° 0 mm 2 m/s 750 mmHg 85%
    03:00 +2°C° 0 mm 2 m/s 750 mmHg 86%
    04:00 +2°C° 0 mm 2 m/s 750 mmHg 88%
    05:00 +2°C° 0 mm 2 m/s 751 mmHg 85%
    06:00 +3°C° 0 mm 2 m/s 751 mmHg 81%
    07:00 +4°C° 0 mm 2 m/s 751 mmHg 78%
    08:00 +6°C° 0 mm 2 m/s 751 mmHg 69%
    09:00 +9°C° 0 mm 2 m/s 751 mmHg 60%
    10:00 +12°C° 0 mm 2 m/s 751 mmHg 51%
    11:00 +13°C° 0 mm 2 m/s 750 mmHg 48%
    12:00 +14°C° 0 mm 2 m/s 750 mmHg 44%
    13:00 +14°C° 0 mm 2 m/s 749 mmHg 40%
    14:00 +14°C° 0 mm 2 m/s 749 mmHg 43%
    15:00 +14°C° 0 mm 2 m/s 748 mmHg 47%
    16:00 +14°C° 0 mm 2 m/s 747 mmHg 50%
    17:00 +13°C° 0 mm 2 m/s 747 mmHg 50%
    18:00 +12°C° 0 mm 2 m/s 747 mmHg 50%
    19:00 +10°C° 0 mm 2 m/s 747 mmHg 51%
    20:00 +10°C° 0 mm 2 m/s 747 mmHg 52%
    21:00 +9°C° 0 mm 3 m/s 747 mmHg 54%
    22:00 +9°C° 0 mm 3 m/s 747 mmHg 55%
    23:00 +9°C° 0 mm 3 m/s 746 mmHg 54%

    Amanhã, 27 Setembro, Quinta-feira

    Tempo Temperatura Precipitação Vento Pressão Humidade
    00:00 +10°C° 0 mm 4 m/s 746 mmHg 54%
    01:00 +10°C° 0 mm 4 m/s 746 mmHg 53%
    02:00 +8°C° 0 mm 4 m/s 745 mmHg 53%
    03:00 +8°C° 0 mm 4 m/s 745 mmHg 53%
    04:00 +8°C° 0 mm 4 m/s 745 mmHg 53%
    05:00 +8°C° 0 mm 4 m/s 745 mmHg 53%
    06:00 +8°C° 0 mm 4 m/s 745 mmHg 53%
    07:00 +10°C° 0 mm 4 m/s 744 mmHg 53%
    08:00 +10°C° 0 mm 4 m/s 744 mmHg 54%
    09:00 +11°C° 0 mm 4 m/s 744 mmHg 56%
    10:00 +10°C° 0 mm 5 m/s 744 mmHg 57%
    11:00 +13°C° 0 mm 5 m/s 744 mmHg 56%
    12:00 +14°C° 0 mm 5 m/s 744 mmHg 55%
    13:00 +16°C° 0 mm 5 m/s 744 mmHg 54%
    14:00 +17°C° 0 mm 4 m/s 744 mmHg 56%
    15:00 +17°C° 0 mm 4 m/s 743 mmHg 58%
    16:00 +16°C° 0 mm 3 m/s 743 mmHg 60%
    17:00 +14°C° 0 mm 3 m/s 743 mmHg 63%
    18:00 +12°C° 0 mm 3 m/s 743 mmHg 65%
    19:00 +10°C° 0 mm 3 m/s 743 mmHg 67%
    20:00 +10°C° 0 mm 3 m/s 743 mmHg 67%
    21:00 +10°C° 0 mm 3 m/s 742 mmHg 66%
    22:00 +9°C° 0 mm 3 m/s 742 mmHg 66%
    23:00 +9°C° 0 mm 3 m/s 742 mmHg 66%

    Depois de amanhã, 28 Setembro, Sexta-feira

    Tempo Temperatura Precipitação Vento Pressão Humidade
    00:00 +9°C° 0 mm 3 m/s 741 mmHg 66%
    01:00 +9°C° 0 mm 3 m/s 741 mmHg 66%
    02:00 +9°C° 0 mm 3 m/s 740 mmHg 65%
    03:00 +9°C° 0 mm 3 m/s 739 mmHg 65%
    04:00 +9°C° 0 mm 3 m/s 739 mmHg 65%
    05:00 +8°C° 0 mm 4 m/s 739 mmHg 64%
    06:00 +10°C° 0 mm 4 m/s 738 mmHg 63%
    07:00 +10°C° 0 mm 4 m/s 738 mmHg 62%
    08:00 +12°C° 0 mm 4 m/s 738 mmHg 59%
    09:00 +14°C° 0 mm 4 m/s 738 mmHg 56%
    10:00 +17°C° 0 mm 4 m/s 738 mmHg 53%
    11:00 +18°C° 0 mm 4 m/s 738 mmHg 51%
    12:00 +19°C° 0 mm 4 m/s 737 mmHg 49%
    13:00 +20°C° 0 mm 4 m/s 737 mmHg 47%
    14:00 +20°C° 0 mm 4 m/s 737 mmHg 50%
    15:00 +19°C° 0 mm 3 m/s 736 mmHg 53%
    16:00 +18°C° 0 mm 2 m/s 736 mmHg 57%
    17:00 +17°C° 0 mm 2 m/s 736 mmHg 61%
    18:00 +15°C° 0 mm 2 m/s 737 mmHg 66%
    19:00 +13°C° 0 mm 2 m/s 737 mmHg 71%
    20:00 +13°C° 0 mm 2 m/s 737 mmHg 76%
    21:00 +13°C° 0 mm 2 m/s 737 mmHg 82%
    22:00 +12°C° 0 mm 1 m/s 737 mmHg 87%
    23:00 +12°C° 0.1 mm 2 m/s 738 mmHg 88%

    29 Setembro, Sábado

    Tempo Temperatura Precipitação Vento Pressão Humidade
    00:00 +12°C° 0.1 mm 2 m/s 738 mmHg 88%
    01:00 +12°C° 0.1 mm 2 m/s 738 mmHg 89%
    02:00 +10°C° 0.2 mm 2 m/s 738 mmHg 89%
    03:00 +10°C° 0.2 mm 2 m/s 738 mmHg 89%
    04:00 +9°C° 0.2 mm 3 m/s 738 mmHg 88%
    05:00 +9°C° 0.3 mm 3 m/s 738 mmHg 88%
    06:00 +9°C° 0.3 mm 3 m/s 738 mmHg 88%
    07:00 +9°C° 0.3 mm 3 m/s 739 mmHg 88%
    08:00 +9°C° 0.3 mm 3 m/s 739 mmHg 84%
    09:00 +10°C° 0.3 mm 4 m/s 740 mmHg 79%
    10:00 +10°C° 0.3 mm 5 m/s 740 mmHg 74%
    11:00 +10°C° 0.2 mm 5 m/s 741 mmHg 69%
    12:00 +12°C° 0.2 mm 5 m/s 741 mmHg 64%
    13:00 +12°C° 0.2 mm 5 m/s 741 mmHg 59%
    14:00 +12°C° 0 mm 5 m/s 741 mmHg 57%
    15:00 +10°C° 0 mm 5 m/s 741 mmHg 55%
    16:00 +11°C° 0 mm 4 m/s 741 mmHg 53%
    17:00 +10°C° 0 mm 4 m/s 742 mmHg 55%
    18:00 +9°C° 0 mm 3 m/s 742 mmHg 57%
    19:00 +8°C° 0 mm 3 m/s 743 mmHg 60%
    20:00 +7°C° 0 mm 2 m/s 743 mmHg 63%
    21:00 +6°C° 0 mm 2 m/s 743 mmHg 66%
    22:00 +5°C° 0 mm 2 m/s 744 mmHg 68%
    23:00 +5°C° 0 mm 2 m/s 744 mmHg 71%

    30 Setembro, Domingo

    Tempo Temperatura Precipitação Vento Pressão Humidade
    00:00 +4°C° 0 mm 2 m/s 744 mmHg 73%
    01:00 +5°C° 0 mm 1 m/s 744 mmHg 76%
    02:00 +5°C° 0 mm 1 m/s 744 mmHg 78%
    03:00 +4°C° 0 mm 1 m/s 744 mmHg 80%
    04:00 +4°C° 0 mm 1 m/s 744 mmHg 82%
    05:00 +5°C° 0 mm 1 m/s 744 mmHg 80%
    06:00 +5°C° 0 mm 1 m/s 744 mmHg 79%
    07:00 +5°C° 0 mm 2 m/s 744 mmHg 77%
    08:00 +7°C° 0 mm 2 m/s 744 mmHg 69%
    09:00 +9°C° 0 mm 3 m/s 744 mmHg 61%
    10:00 +11°C° 0 mm 4 m/s 743 mmHg 53%
    11:00 +11°C° 0 mm 4 m/s 743 mmHg 51%
    12:00 +12°C° 0 mm 4 m/s 742 mmHg 49%
    13:00 +13°C° 0 mm 4 m/s 742 mmHg 47%
    14:00 +13°C° 0 mm 3 m/s 741 mmHg 50%
    15:00 +12°C° 0 mm 3 m/s 741 mmHg 54%
    16:00 +12°C° 0 mm 3 m/s 740 mmHg 57%
    17:00 +10°C° 0 mm 3 m/s 740 mmHg 64%
    18:00 +8°C° 0 mm 2 m/s 740 mmHg 71%
    19:00 +6°C° 0 mm 2 m/s 740 mmHg 78%
    20:00 +6°C° 0 mm 2 m/s 740 mmHg 80%
    21:00 +6°C° 0 mm 2 m/s 739 mmHg 82%
    22:00 +5°C° 0 mm 2 m/s 739 mmHg 83%
    23:00 +5°C° 0 mm 2 m/s 739 mmHg 83%

    1 Outubro, Segunda-feira

    Tempo Temperatura Precipitação Vento Pressão Humidade
    00:00 +5°C° 0 mm 2 m/s 738 mmHg 82%
    01:00 +5°C° 0 mm 2 m/s 738 mmHg 82%
    02:00 +5°C° 0 mm 2 m/s 737 mmHg 81%
    03:00 +5°C° 0 mm 2 m/s 737 mmHg 81%
    04:00 +6°C° 0 mm 1 m/s 736 mmHg 80%
    05:00 +6°C° 0 mm 2 m/s 736 mmHg 78%
    06:00 +7°C° 0 mm 2 m/s 736 mmHg 75%
    07:00 +8°C° 0 mm 2 m/s 736 mmHg 73%
    08:00 +10°C° 0 mm 2 m/s 735 mmHg 67%
    09:00 +13°C° 0 mm 2 m/s 735 mmHg 61%
    10:00 +16°C° 0 mm 3 m/s 735 mmHg 55%
    11:00 +17°C° 0 mm 3 m/s 734 mmHg 53%
    12:00 +18°C° 0 mm 3 m/s 734 mmHg 51%
    13:00 +19°C° 0 mm 3 m/s 733 mmHg 50%
    14:00 +18°C° 0 mm 3 m/s 733 mmHg 54%
    15:00 +17°C° 0 mm 2 m/s 733 mmHg 59%
    16:00 +17°C° 0 mm 2 m/s 732 mmHg 63%
    17:00 +15°C° 0 mm 2 m/s 732 mmHg 67%
    18:00 +14°C° 0 mm 2 m/s 732 mmHg 71%
    19:00 +13°C° 0 mm 2 m/s 732 mmHg 74%
    20:00 +13°C° 0.1 mm 2 m/s 733 mmHg 78%
    21:00 +12°C° 0.1 mm 2 m/s 733 mmHg 81%
    22:00 +12°C° 0.1 mm 2 m/s 733 mmHg 84%
    23:00 +12°C° 0.3 mm 2 m/s 733 mmHg 86%
    Mostrar mais